• In Latvia
  • List of Countries
  • For 7 days
  • Water Temperature
  • Satellite Maps
  • Weather Map
  • Weather Widgets
  • user-avatar
    Login

    Hourly Weather Litin

    Today, 23 July, Monday

    Time Temperature Precipitation Wind Pressure Humidity
    00:00 +18°C° 0 mm 2 mps 731 mmHg 91%
    01:00 +18°C° 0 mm 2 mps 730 mmHg 92%
    02:00 +17°C° 0 mm 2 mps 730 mmHg 92%
    03:00 +17°C° 0 mm 3 mps 730 mmHg 93%
    04:00 +17°C° 0 mm 3 mps 730 mmHg 93%
    05:00 +17°C° 0 mm 3 mps 730 mmHg 93%
    06:00 +18°C° 0.2 mm 3 mps 730 mmHg 91%
    07:00 +19°C° 0.2 mm 4 mps 730 mmHg 89%
    08:00 +21°C° 0.2 mm 4 mps 730 mmHg 87%
    09:00 +21°C° 0.5 mm 4 mps 730 mmHg 86%
    10:00 +21°C° 0.5 mm 4 mps 730 mmHg 85%
    11:00 +22°C° 0.5 mm 4 mps 730 mmHg 85%
    12:00 +22°C° 0.9 mm 4 mps 729 mmHg 82%
    13:00 +23°C° 0.9 mm 4 mps 729 mmHg 80%
    14:00 +25°C° 0.9 mm 4 mps 729 mmHg 77%
    15:00 +25°C° 1.3 mm 4 mps 729 mmHg 78%
    16:00 +25°C° 1.3 mm 4 mps 729 mmHg 79%
    17:00 +25°C° 1.3 mm 3 mps 729 mmHg 80%
    18:00 +22°C° 0.8 mm 3 mps 729 mmHg 84%
    19:00 +21°C° 0.8 mm 3 mps 729 mmHg 88%
    20:00 +20°C° 0.8 mm 2 mps 728 mmHg 92%
    21:00 +20°C° 0.3 mm 2 mps 728 mmHg 93%
    22:00 +19°C° 0.3 mm 2 mps 729 mmHg 94%
    23:00 +19°C° 0.3 mm 2 mps 729 mmHg 95%

    Tomorrow, 24 July, Tuesday

    Time Temperature Precipitation Wind Pressure Humidity
    00:00 +18°C° 0 mm 2 mps 729 mmHg 96%
    01:00 +18°C° 0 mm 3 mps 729 mmHg 97%
    02:00 +18°C° 0 mm 3 mps 729 mmHg 97%
    03:00 +18°C° 0 mm 3 mps 729 mmHg 97%
    04:00 +18°C° 0 mm 3 mps 729 mmHg 97%
    05:00 +18°C° 0 mm 3 mps 729 mmHg 97%
    06:00 +19°C° 0 mm 3 mps 729 mmHg 96%
    07:00 +19°C° 0 mm 3 mps 730 mmHg 94%
    08:00 +20°C° 0 mm 4 mps 730 mmHg 93%
    09:00 +20°C° 0.1 mm 4 mps 730 mmHg 91%
    10:00 +21°C° 0.1 mm 4 mps 730 mmHg 89%
    11:00 +21°C° 0.1 mm 4 mps 730 mmHg 88%
    12:00 +22°C° 0.3 mm 4 mps 730 mmHg 85%
    13:00 +22°C° 0.3 mm 4 mps 730 mmHg 83%
    14:00 +23°C° 0.3 mm 4 mps 730 mmHg 80%
    15:00 +24°C° 0.2 mm 3 mps 730 mmHg 80%
    16:00 +24°C° 0.2 mm 3 mps 730 mmHg 80%
    17:00 +24°C° 0.2 mm 3 mps 730 mmHg 80%
    18:00 +22°C° 0.1 mm 3 mps 730 mmHg 83%
    19:00 +23°C° 0.1 mm 2 mps 730 mmHg 86%
    20:00 +21°C° 0.1 mm 2 mps 730 mmHg 90%
    21:00 +20°C° 0 mm 2 mps 731 mmHg 91%
    22:00 +20°C° 0 mm 2 mps 731 mmHg 92%
    23:00 +19°C° 0 mm 2 mps 731 mmHg 93%

    Day after tomorrow, 25 July, Wednesday

    Time Temperature Precipitation Wind Pressure Humidity
    00:00 +19°C° 0.2 mm 2 mps 731 mmHg 94%
    01:00 +18°C° 0.2 mm 2 mps 731 mmHg 95%
    02:00 +18°C° 0.2 mm 2 mps 731 mmHg 96%
    03:00 +18°C° 0.2 mm 2 mps 731 mmHg 96%
    04:00 +18°C° 0.2 mm 2 mps 731 mmHg 97%
    05:00 +18°C° 0.2 mm 2 mps 731 mmHg 97%
    06:00 +19°C° 0.1 mm 2 mps 731 mmHg 94%
    07:00 +20°C° 0.1 mm 2 mps 732 mmHg 91%
    08:00 +21°C° 0.1 mm 2 mps 732 mmHg 88%
    09:00 +23°C° 0.7 mm 2 mps 732 mmHg 83%
    10:00 +25°C° 0.7 mm 2 mps 732 mmHg 78%
    11:00 +26°C° 0.7 mm 2 mps 732 mmHg 72%
    12:00 +27°C° 1 mm 2 mps 732 mmHg 68%
    13:00 +28°C° 1 mm 2 mps 732 mmHg 64%
    14:00 +29°C° 1 mm 3 mps 732 mmHg 60%
    15:00 +28°C° 0.9 mm 2 mps 732 mmHg 62%
    16:00 +28°C° 0.9 mm 2 mps 732 mmHg 64%
    17:00 +28°C° 0.9 mm 1 mps 732 mmHg 66%
    18:00 +27°C° 0.4 mm 1 mps 732 mmHg 71%
    19:00 +25°C° 0.4 mm 1 mps 732 mmHg 77%
    20:00 +23°C° 0.4 mm 2 mps 732 mmHg 82%
    21:00 +23°C° 0 mm 2 mps 732 mmHg 84%
    22:00 +22°C° 0 mm 1 mps 732 mmHg 85%
    23:00 +22°C° 0 mm 1 mps 733 mmHg 87%

    26 July, Thursday

    Time Temperature Precipitation Wind Pressure Humidity
    00:00 +21°C° 0 mm 1 mps 733 mmHg 88%
    01:00 +20°C° 0 mm 2 mps 733 mmHg 89%
    02:00 +20°C° 0 mm 2 mps 733 mmHg 90%
    03:00 +20°C° 0 mm 1 mps 733 mmHg 91%
    04:00 +20°C° 0 mm 1 mps 733 mmHg 92%
    05:00 +20°C° 0 mm 1 mps 733 mmHg 92%
    06:00 +21°C° 0.1 mm 2 mps 733 mmHg 89%
    07:00 +23°C° 0.1 mm 2 mps 734 mmHg 85%
    08:00 +25°C° 0.1 mm 2 mps 734 mmHg 81%
    09:00 +26°C° 0.5 mm 3 mps 734 mmHg 75%
    10:00 +27°C° 0.5 mm 3 mps 734 mmHg 70%
    11:00 +29°C° 0.5 mm 3 mps 734 mmHg 64%
    12:00 +29°C° 0.3 mm 3 mps 734 mmHg 64%
    13:00 +29°C° 0.3 mm 4 mps 734 mmHg 64%
    14:00 +29°C° 0.3 mm 4 mps 734 mmHg 63%
    15:00 +29°C° 0.4 mm 4 mps 734 mmHg 66%
    16:00 +29°C° 0.4 mm 3 mps 734 mmHg 68%
    17:00 +29°C° 0.4 mm 3 mps 734 mmHg 70%
    18:00 +27°C° 0.5 mm 3 mps 734 mmHg 75%
    19:00 +26°C° 0.5 mm 3 mps 734 mmHg 81%
    20:00 +24°C° 0.5 mm 2 mps 734 mmHg 86%
    21:00 +24°C° 0.3 mm 2 mps 734 mmHg 89%
    22:00 +23°C° 0.3 mm 2 mps 734 mmHg 91%
    23:00 +21°C° 0.3 mm 2 mps 734 mmHg 93%

    27 July, Friday

    Time Temperature Precipitation Wind Pressure Humidity
    00:00 +21°C° 0 mm 2 mps 734 mmHg 94%
    01:00 +20°C° 0 mm 2 mps 735 mmHg 94%
    02:00 +20°C° 0 mm 2 mps 735 mmHg 95%
    03:00 +20°C° 0 mm 2 mps 735 mmHg 95%
    04:00 +19°C° 0 mm 2 mps 735 mmHg 96%
    05:00 +19°C° 0 mm 3 mps 735 mmHg 96%
    06:00 +20°C° 0 mm 3 mps 735 mmHg 93%
    07:00 +22°C° 0 mm 3 mps 735 mmHg 89%
    08:00 +24°C° 0 mm 3 mps 735 mmHg 86%
    09:00 +25°C° 0 mm 3 mps 735 mmHg 80%
    10:00 +27°C° 0 mm 3 mps 735 mmHg 74%
    11:00 +28°C° 0 mm 3 mps 735 mmHg 69%
    12:00 +29°C° 0.1 mm 3 mps 735 mmHg 66%
    13:00 +29°C° 0.1 mm 3 mps 734 mmHg 64%
    14:00 +30°C° 0.1 mm 3 mps 734 mmHg 61%
    15:00 +29°C° 0.1 mm 3 mps 734 mmHg 63%
    16:00 +29°C° 0.1 mm 3 mps 734 mmHg 65%
    17:00 +29°C° 0.1 mm 3 mps 734 mmHg 68%
    18:00 +27°C° 0.2 mm 3 mps 734 mmHg 73%
    19:00 +26°C° 0.2 mm 2 mps 734 mmHg 79%
    20:00 +24°C° 0.2 mm 2 mps 734 mmHg 85%
    21:00 +24°C° 0 mm 2 mps 734 mmHg 87%
    22:00 +23°C° 0 mm 2 mps 733 mmHg 89%
    23:00 +23°C° 0 mm 2 mps 733 mmHg 90%

    28 July, Saturday

    Time Temperature Precipitation Wind Pressure Humidity
    00:00 +21°C° 0 mm 2 mps 733 mmHg 91%
    01:00 +21°C° 0 mm 2 mps 733 mmHg 93%
    02:00 +21°C° 0 mm 2 mps 733 mmHg 94%
    03:00 +20°C° 0 mm 2 mps 733 mmHg 94%
    04:00 +20°C° 0 mm 2 mps 733 mmHg 95%
    05:00 +20°C° 0 mm 2 mps 733 mmHg 95%
    06:00 +21°C° 0 mm 2 mps 733 mmHg 92%
    07:00 +24°C° 0 mm 2 mps 733 mmHg 88%
    08:00 +25°C° 0 mm 2 mps 733 mmHg 85%
    09:00 +26°C° 0.4 mm 3 mps 733 mmHg 81%
    10:00 +27°C° 0.4 mm 3 mps 733 mmHg 77%
    11:00 +28°C° 0.4 mm 3 mps 733 mmHg 73%
    12:00 +29°C° 0.6 mm 3 mps 733 mmHg 72%
    13:00 +29°C° 0.6 mm 3 mps 733 mmHg 71%
    14:00 +29°C° 0.6 mm 3 mps 733 mmHg 70%
    15:00 +29°C° 0.2 mm 3 mps 733 mmHg 71%
    16:00 +29°C° 0.2 mm 3 mps 733 mmHg 71%
    17:00 +29°C° 0.2 mm 3 mps 733 mmHg 72%
    18:00 +27°C° 0.2 mm 3 mps 733 mmHg 78%
    19:00 +26°C° 0.2 mm 3 mps 733 mmHg 83%
    20:00 +25°C° 0.2 mm 2 mps 733 mmHg 88%
    21:00 +24°C° 0.1 mm 2 mps 733 mmHg 90%
    22:00 +23°C° 0.1 mm 2 mps 733 mmHg 92%
    23:00 +23°C° 0.1 mm 2 mps 733 mmHg 94%
    Show more